Torna al catalogo

LEMUR 2 MARACHE-FRAN

AttivoScienzaSSO
NORAD 63262·PAYLOAD·🇺🇸 United States

Lanciato Mar 15, 2025 da Vandenberg Space Force Base

Loading…

Prossimi Passaggi (prossime 24 ore)

TLE

AggiornatoSource: Space-Track

Epoca: Sep 14, 2026, 11:58 UTC

1 63262U 25052BE  26257.49882353  .00003994  00000-0  31924-3 0  9994
2 63262  97.6659 150.0050 0011287  63.3882 296.8497 15.00747415 82158

Traccia LEMUR 2 MARACHE-FRAN in tempo reale con AllMySat

Download on the App Store